Temperature
6 6 6 6 6 6 6 6 6 6 6 5 5 5 5 5 6 6 6 6 6 6 6 6 7 7 7 7 7 7 7 7 7 7 7 7 7 7 7 7 7 7 7
5 5 5 5 6 6 6 5 5 5 5 5 5 5 5 5 5 5 5 5 5 5 6 6 6 6 6 6 6 6 6 6 6 6 6 6 6 6 6 6 6 6 6
4 5 5 5 5 5 5 5 5 5 4 4 4 4 4 4 4 4 4 4 5 5 5 5 5 5 5 5 5 5 6 6 5 5 5 5 5 5 5 5 5 5 6
4 4 4 4 4 4 4 4 4 4 4 4 4 4 4 4 4 4 4 4 4 4 4 4 4 4 5 5 5 5 5 5 5 5 4 4 4 4 4 4 4 4 5
4 4 4 4 4 4 4 4 3 3 3 3 3 3 3 3 3 3 3 3 3 3 3 4 4 4 4 4 4 4 4 4 4 4 4 4 4 4 3 3 4 4 4
3 3 3 3 3 3 3 3 3 3 3 3 3 3 3 3 3 3 3 3 3 3 3 3 3 3 3 3 3 3 3 4 4 4 3 3 3 3 3 3 3 3 3
2 3 3 3 3 3 3 3 2 2 2 2 2 2 2 2 2 2 2 2 2 2 2 2 2 2 2 2 3 3 3 3 3 3 3 3 3 3 3 2 2 2 2
2 2 2 2 2 2 2 2 2 2 2 2 2 2 1 1 1 1 1 1 1 1 1 1 2 2 2 2 2 2 2 2 2 2 2 2 2 2 2 2 1 1 1
1 1 2 2 2 2 2 1 1 1 1 1 1 1 1 1 1 1 1 1 1 1 1 1 1 1 1 1 1 1 1 1 2 2 2 1 1 1 1 1 1 0 0
1 1 1 1 1 1 1 1 1 1 1 1 1 0 0 0 0 -0 0 -0 -0 0 0 0 0 0 0 0 1 1 1 1 1 1 1 1 1 0 0 0 0 -0 -0
1 0 1 1 1 1 0 0 0 0 -0 -0 -0 -0 -0 -1 -1 -1 -1 -1 -1 -1 -1 -1 -1 -1 -0 -0 -0 0 -0 0 0 0 0 0 0 -0 -0 -0 -1 -1 -1
-0 -0 0 0 0 -0 -0 -0 -0 -1 -1 -1 -1 -1 -1 -1 -1 -1 -1 -1 -1 -1 -1 -1 -1 -1 -1 -1 -1 -1 -1 -1 -1 -0 -1 -1 -1 -1 -1 -1 -1 -1 -1
-0 -0 -1 -1 -1 -1 -1 -1 -1 -1 -1 -2 -2 -2 -2 -2 -2 -2 -2 -2 -2 -2 -2 -2 -2 -2 -2 -2 -2 -2 -1 -1 -1 -1 -1 -1 -1 -1 -1 -1 -1 -2 -2
-1 -1 -1 -1 -1 -1 -1 -2 -2 -2 -2 -2 -2 -2 -2 -2 -2 -2 -2 -2 -2 -2 -2 -2 -2 -2 -2 -2 -2 -2 -2 -2 -2 -2 -2 -2 -2 -2 -2 -2 -2 -2 -2
-2 -2 -2 -2 -2 -2 -2 -2 -2 -2 -3 -3 -3 -3 -3 -3 -3 -3 -3 -3 -3 -3 -3 -3 -3 -3 -3 -3 -3 -3 -3 -3 -3 -3 -3 -3 -3 -3 -3 -3 -3 -3 -3
-2 -2 -3 -3 -3 -3 -3 -3 -3 -3 -3 -3 -3 -4 -4 -4 -4 -4 -4 -4 -4 -4 -4 -4 -4 -4 -4 -4 -4 -4 -4 -4 -4 -3 -3 -3 -3 -3 -3 -3 -4 -3 -3
-3 -3 -3 -3 -3 -3 -4 -4 -4 -4 -4 -4 -4 -4 -4 -5 -4 -4 -4 -4 -4 -4 -4 -4 -4 -5 -5 -5 -5 -5 -5 -5 -4 -4 -4 -4 -4 -4 -4 -4 -4 -4 -4
-4 -4 -4 -4 -4 -4 -4 -4 -5 -5 -5 -5 -5 -5 -5 -5 -5 -5 -5 -5 -5 -5 -5 -5 -5 -5 -5 -5 -5 -5 -5 -5 -5 -5 -5 -5 -5 -5 -5 -5 -5 -5 -5
-4 -5 -5 -5 -5 -5 -5 -5 -5 -6 -6 -6 -6 -6 -6 -6 -6 -6 -6 -6 -6 -6 -6 -6 -6 -6 -6 -6 -6 -6 -6 -6 -6 -6 -6 -6 -6 -6 -6 -6 -6 -6 -6
-5 -6 -6 -6 -6 -6 -6 -6 -6 -6 -6 -6 -7 -7 -7 -7 -7 -7 -7 -7 -7 -7 -7 -7 -7 -7 -6 -6 -6 -7 -7 -7 -7 -7 -7 -7 -7 -6 -7 -7 -7 -7 -6
-6 -7 -7 -7 -7 -7 -7 -7 -7 -7 -7 -8 -8 -8 -8 -8 -8 -8 -8 -8 -8 -8 -8 -8 -7 -7 -7 -7 -7 -8 -8 -8 -8 -7 -7 -7 -7 -7 -7 -7 -7 -7 -7
-7 -7 -8 -8 -8 -8 -8 -8 -8 -8 -8 -8 -8 -8 -8 -9 -9 -9 -9 -9 -9 -9 -8 -8 -8 -8 -8 -8 -8 -8 -8 -8 -8 -8 -8 -8 -8 -8 -8 -8 -8 -8 -8
-8 -9 -9 -9 -9 -9 -9 -9 -9 -9 -9 -9 -9 -9 -9 -9 -9 -9 -9 -9 -9 -10 -9 -9 -9 -9 -9 -9 -9 -9 -9 -9 -9 -9 -9 -9 -9 -9 -9 -9 -9 -9 -9
-9 -9 -9 -10 -10 -10 -10 -10 -10 -10 -10 -10 -10 -10 -10 -10 -10 -10 -10 -10 -10 -10 -10 -10 -10 -10 -10 -10 -10 -10 -10 -10 -10 -10 -9 -9 -9 -9 -9 -9 -9 -9 -9
-10 -10 -10 -10 -11 -11 -11 -11 -11 -11 -11 -11 -11 -11 -11 -11 -11 -11 -11 -11 -11 -11 -11 -11 -11 -11 -11 -11 -11 -10 -10 -10 -10 -10 -10 -10 -10 -10 -10 -10 -10 -10 -10
-11 -11 -11 -11 -11 -11 -11 -12 -12 -12 -12 -12 -12 -12 -12 -11 -11 -11 -11 -11 -11 -11 -12 -12 -12 -12 -11 -11 -11 -11 -11 -11 -11 -11 -10 -10 -11 -11 -11 -11 -11 -11 -11
Wind_Speed
4 2 3 4 4 3 3 3 2 2 2 2 1 1 1 0 1 2 2 2 2 2 3 3 2 2 2 1 2 2 2 1 1 2 2 2 3 3 4 5 5 6 6
2 3 3 4 4 5 4 4 3 3 3 2 2 1 1 1 1 1 2 2 2 2 2 2 2 1 1 2 2 2 1 1 1 2 1 0 1 2 2 3 3 4 4
5 4 4 4 4 4 4 4 4 3 2 2 2 2 1 1 0 1 1 2 1 1 1 1 2 1 1 2 2 3 3 2 1 1 2 2 2 1 1 1 2 2 2
4 4 4 4 4 4 3 3 3 3 3 3 3 3 2 2 2 2 1 1 1 1 1 1 1 1 1 1 2 2 2 3 3 1 1 1 2 2 1 1 1 1 2
4 4 4 4 3 3 3 3 3 3 2 3 4 3 2 2 1 1 1 1 1 1 1 0 1 1 1 1 1 1 2 3 3 3 2 1 1 1 2 2 1 1 1
2 2 1 1 1 1 2 2 2 2 2 3 3 4 3 2 1 1 2 1 1 1 1 0 1 1 1 1 2 2 3 3 3 3 3 3 2 2 2 2 2 2 2
1 1 0 0 0 1 2 2 2 2 2 2 2 3 3 4 4 3 3 2 2 2 2 2 1 1 2 2 2 2 2 3 4 4 4 3 2 2 2 2 1 2 2
1 1 0 0 1 1 1 2 2 2 3 3 3 2 2 3 3 3 3 3 3 3 3 2 2 2 2 2 2 2 3 2 3 4 4 3 3 3 3 3 2 2 2
1 1 0 0 1 1 1 1 2 2 3 3 3 3 3 3 3 3 3 3 3 3 3 3 3 3 2 2 2 2 3 3 3 4 4 4 3 3 3 3 3 4 4
1 1 1 1 1 1 1 0 1 2 2 2 3 2 3 3 3 3 3 3 3 3 3 3 3 3 3 3 2 2 3 4 4 3 4 4 3 3 3 3 3 3 4
2 2 2 1 1 0 0 1 1 1 1 1 2 2 2 2 2 2 3 3 3 3 3 4 4 4 4 4 3 3 3 4 4 4 5 5 4 4 4 4 4 4 4
2 2 1 1 1 1 1 1 1 1 2 1 1 2 1 1 2 2 3 2 3 3 3 3 4 4 4 4 4 5 4 5 5 5 5 5 4 5 4 4 5 5 5
2 2 1 2 2 2 2 2 2 2 2 1 1 2 2 2 2 3 3 2 2 3 3 2 3 4 4 4 5 5 5 6 6 6 6 6 6 6 5 6 6 5 5
4 3 2 3 3 3 3 3 3 2 1 1 1 2 3 3 3 3 2 2 2 2 3 3 3 3 4 4 4 5 5 6 6 6 6 6 7 7 7 6 7 6 5
4 4 3 3 3 3 3 3 3 2 2 2 2 3 3 3 2 2 2 3 2 3 3 3 3 3 3 4 4 5 5 5 5 5 5 6 8 8 7 6 6 6 6
5 5 4 4 4 4 4 3 3 2 2 2 3 3 2 2 2 2 2 2 2 2 2 3 3 3 4 6 7 5 5 5 5 5 5 6 6 7 9 9 9 8 7
6 5 5 4 4 4 3 3 3 2 2 3 3 2 2 2 3 2 2 3 3 2 2 3 3 4 5 7 8 8 5 5 5 5 5 5 5 6 5 7 9 9 11
6 5 4 4 4 3 2 2 1 2 2 2 2 2 2 3 3 2 3 3 3 3 3 3 4 4 6 7 8 8 5 4 5 6 6 6 6 6 6 6 6 7 7
4 4 4 4 3 3 2 1 1 1 2 2 3 3 2 3 3 3 3 3 3 3 3 3 3 4 5 7 8 7 4 4 5 5 6 6 7 9 9 6 6 7 6
3 3 2 2 2 2 1 1 1 2 3 3 3 3 3 3 4 4 4 3 3 3 3 4 3 4 5 7 8 7 4 4 4 4 5 8 8 10 9 6 6 7 6
2 2 1 1 2 2 0 1 2 3 3 2 2 2 3 3 4 3 3 3 3 3 3 3 4 4 5 7 8 7 4 4 4 4 4 5 9 10 10 8 6 8 6
2 2 1 2 2 1 0 1 3 3 2 2 2 3 3 3 2 2 3 3 3 3 3 3 4 3 4 5 6 8 8 6 4 4 4 5 9 9 9 7 8 8 6
2 2 1 2 3 2 0 2 3 2 1 1 2 3 3 2 2 2 3 2 3 3 3 3 4 3 3 4 7 8 8 8 4 4 7 8 8 7 6 7 7 5 3
2 2 2 2 3 3 2 2 3 2 1 2 2 2 2 3 2 2 3 3 3 3 3 4 4 4 3 3 4 4 5 6 5 4 6 7 6 5 5 5 4 3 4
2 2 1 2 3 3 3 3 3 2 2 2 2 2 3 3 3 3 3 4 4 5 4 4 4 4 4 5 7 5 4 3 4 3 1 1 2 2 2 2 3 3 3
2 2 2 3 3 3 4 4 3 2 2 2 2 2 2 3 3 3 3 5 6 7 8 7 6 6 7 8 8 9 9 8 6 2 1 2 2 3 3 3 3 3 3
Wind_Direction
241 196 176 163 153 151 148 152 142 133 118 117 137 157 181 18 43 53 59 67 65 69 78 81 90 91 115 128 117 109 101 95 81 81 46 29 39 50 40 40 49 47 46
227 207 187 173 173 175 170 166 165 158 154 154 169 174 165 165 57 44 54 60 73 77 79 88 96 92 126 130 135 122 129 103 94 111 111 58 358 16 27 34 47 40 40
216 214 206 198 187 188 187 182 178 169 162 133 115 100 88 85 47 340 341 6 58 86 75 99 110 112 146 172 180 171 156 167 166 105 139 155 209 262 336 28 37 23 30
209 209 207 202 196 200 186 176 172 167 163 145 150 152 173 196 223 241 271 330 10 54 59 89 112 131 139 177 201 184 181 168 179 181 77 110 148 158 218 289 3 359 356
204 204 208 209 201 183 169 173 166 162 160 165 173 175 192 211 208 215 259 295 326 353 24 108 134 161 178 194 204 202 193 190 183 177 170 127 80 109 165 214 259 305 289
222 221 209 166 170 144 144 152 162 171 167 173 183 188 196 196 183 218 234 265 285 285 301 300 204 203 201 204 214 205 203 207 193 181 176 174 173 179 172 197 230 255 270
218 219 37 90 191 161 163 165 170 185 182 182 193 204 205 197 203 215 221 232 259 262 258 272 263 252 228 211 205 205 210 214 210 197 194 193 191 173 176 176 211 253 276
223 223 236 249 256 205 186 188 193 201 196 198 214 215 217 213 217 219 220 225 237 248 255 258 258 251 240 223 208 206 219 215 222 214 198 197 198 187 183 178 180 223 262
252 254 319 317 305 250 225 216 215 216 211 213 217 217 219 226 232 228 226 231 243 256 253 246 247 252 240 230 219 214 222 220 227 221 207 205 201 200 198 189 187 188 219
302 270 258 268 276 275 285 245 233 237 230 218 222 227 226 233 240 226 227 234 245 253 247 242 240 243 241 232 223 227 219 221 226 215 207 210 202 201 202 203 210 208 210
260 257 259 262 266 326 335 284 276 292 289 259 241 240 241 240 247 238 235 237 244 247 243 238 236 236 235 230 222 229 228 227 234 220 212 217 206 208 207 206 212 218 214
260 262 263 273 265 264 267 256 260 260 272 280 266 254 254 246 248 256 249 240 243 248 248 244 238 237 236 234 230 230 231 229 232 223 217 220 215 218 214 211 215 218 216
278 283 277 265 260 258 258 258 255 257 273 285 303 298 279 259 251 260 259 246 243 251 256 246 239 241 237 236 240 231 228 229 234 226 219 218 213 219 220 216 217 219 223
274 279 275 270 269 264 258 256 263 258 258 251 254 275 271 261 260 262 267 252 241 239 242 245 242 242 241 238 243 246 239 233 237 231 223 218 217 219 216 218 219 219 221
275 275 274 274 274 272 265 256 254 251 235 231 246 258 270 269 267 269 273 264 246 242 242 242 248 251 245 238 238 243 246 242 244 239 230 229 233 234 228 225 217 214 218
267 273 277 278 273 267 264 264 255 251 233 231 248 263 270 278 263 260 267 271 259 250 241 242 244 251 253 260 258 251 244 244 250 249 244 242 241 243 246 249 243 232 224
264 267 269 267 270 267 262 257 255 249 232 239 251 256 259 271 267 262 263 268 260 251 250 247 244 251 261 267 264 261 253 238 247 247 241 246 248 248 241 250 254 252 249
270 272 276 280 281 272 266 258 243 223 230 247 258 263 263 271 279 262 258 266 260 246 249 252 247 255 267 273 266 267 257 240 245 243 234 236 240 243 237 236 244 248 250
267 271 269 271 280 284 271 243 242 234 242 253 260 261 257 261 270 263 258 261 262 255 252 252 248 252 268 276 272 269 256 252 251 249 246 242 238 246 247 236 239 252 258
297 291 296 301 300 298 278 220 254 249 255 260 264 265 255 251 260 266 265 262 258 257 261 269 261 256 262 274 275 268 252 258 259 254 251 252 252 251 249 233 230 241 249
311 309 310 314 303 304 298 266 272 264 268 277 279 275 263 259 260 267 268 267 267 267 263 271 273 263 267 278 277 270 255 250 253 254 253 253 259 257 253 250 239 247 252
334 340 347 333 333 342 127 282 283 280 281 281 282 281 277 272 271 262 270 262 255 259 260 266 281 275 276 279 274 273 272 269 248 250 252 255 261 259 258 257 258 261 255
333 341 350 340 339 341 265 268 287 295 299 304 294 293 291 282 275 257 258 256 244 246 264 265 274 281 275 275 279 275 278 283 274 266 269 269 267 267 258 261 265 260 239
336 342 359 349 333 335 324 286 298 299 284 284 288 291 287 286 282 273 261 253 250 247 257 264 270 279 275 268 267 264 272 283 281 275 270 273 273 273 269 262 256 249 243
331 343 338 318 313 323 321 316 315 310 287 281 284 288 280 274 272 269 259 261 250 245 254 251 255 262 268 273 280 274 265 258 261 269 247 244 248 253 261 257 250 246 248
332 335 330 321 319 325 322 322 322 306 286 292 295 290 285 283 279 280 289 284 283 282 276 274 274 268 274 285 287 286 288 286 284 271 218 236 243 248 252 258 264 256 247
Height
1486 1487 1489 1491 1493 1495 1497 1498 1500 1501 1502 1504 1505 1506 1508 1509 1510 1512 1513 1514 1516 1517 1518 1519 1520 1521 1522 1522 1523 1525 1525 1526 1527 1529 1530 1531 1533 1534 1535 1536 1537 1538 1539
1481 1483 1485 1487 1489 1491 1493 1495 1496 1498 1499 1500 1502 1503 1504 1506 1507 1508 1509 1511 1512 1513 1515 1515 1516 1517 1518 1519 1520 1521 1522 1523 1524 1526 1527 1528 1530 1530 1531 1532 1534 1535 1536
1477 1479 1481 1483 1485 1487 1489 1491 1493 1494 1496 1497 1499 1500 1501 1502 1503 1505 1506 1507 1508 1510 1511 1512 1513 1514 1515 1515 1516 1517 1518 1519 1521 1522 1525 1525 1525 1526 1528 1529 1530 1532 1533
1475 1476 1478 1479 1481 1484 1486 1488 1490 1491 1493 1494 1495 1496 1497 1498 1499 1501 1502 1503 1504 1506 1507 1508 1509 1510 1511 1512 1513 1514 1515 1516 1517 1519 1520 1522 1522 1523 1523 1525 1527 1528 1529
1472 1473 1475 1477 1479 1481 1482 1484 1486 1488 1489 1490 1492 1493 1494 1495 1496 1497 1498 1500 1501 1502 1503 1504 1505 1506 1507 1508 1509 1510 1511 1512 1513 1514 1516 1517 1518 1519 1520 1520 1522 1524 1526
1470 1471 1473 1474 1476 1477 1479 1481 1483 1484 1486 1487 1488 1489 1490 1491 1492 1493 1494 1496 1497 1498 1499 1500 1501 1502 1503 1504 1505 1506 1507 1508 1509 1510 1511 1513 1514 1514 1516 1517 1518 1519 1521
1469 1469 1470 1471 1473 1474 1476 1478 1479 1480 1482 1483 1485 1486 1487 1488 1488 1490 1491 1491 1493 1494 1494 1495 1496 1498 1499 1500 1501 1502 1503 1504 1505 1505 1506 1508 1510 1511 1512 1513 1514 1515 1516
1467 1468 1469 1470 1471 1472 1473 1475 1476 1477 1479 1480 1481 1482 1483 1484 1485 1486 1486 1487 1488 1489 1490 1491 1492 1493 1494 1495 1496 1497 1498 1499 1500 1501 1501 1503 1505 1506 1507 1509 1510 1510 1511
1466 1467 1468 1468 1469 1470 1471 1472 1473 1474 1475 1476 1477 1478 1479 1480 1481 1481 1482 1483 1483 1484 1486 1487 1487 1488 1489 1490 1491 1492 1493 1494 1495 1496 1497 1498 1499 1501 1502 1504 1506 1507 1506
1465 1466 1466 1467 1467 1468 1469 1469 1470 1471 1472 1472 1473 1474 1474 1475 1476 1477 1477 1478 1479 1479 1481 1481 1482 1483 1484 1484 1485 1486 1488 1489 1489 1491 1492 1493 1494 1495 1497 1498 1500 1501 1502
1464 1464 1465 1465 1465 1466 1466 1466 1467 1467 1468 1469 1469 1470 1470 1471 1471 1472 1472 1473 1474 1474 1475 1476 1477 1477 1478 1479 1480 1481 1482 1483 1484 1485 1486 1487 1489 1490 1491 1493 1494 1495 1497
1463 1462 1462 1463 1463 1463 1463 1463 1463 1464 1464 1465 1465 1465 1466 1466 1466 1467 1467 1468 1469 1469 1470 1471 1471 1472 1472 1473 1474 1475 1476 1477 1478 1479 1480 1481 1483 1484 1486 1487 1488 1490 1491
1460 1460 1460 1460 1460 1460 1460 1460 1460 1460 1460 1460 1460 1461 1461 1461 1461 1462 1462 1463 1463 1464 1465 1465 1466 1466 1467 1468 1468 1469 1470 1471 1473 1474 1474 1475 1477 1478 1480 1481 1483 1484 1485
1457 1457 1457 1457 1456 1456 1456 1456 1456 1456 1456 1456 1456 1456 1456 1456 1457 1457 1458 1458 1458 1459 1459 1460 1460 1461 1461 1462 1463 1463 1464 1465 1466 1468 1468 1470 1471 1472 1473 1475 1476 1477 1479
1454 1453 1453 1453 1453 1453 1453 1453 1453 1453 1452 1452 1452 1451 1452 1452 1452 1452 1452 1453 1453 1453 1454 1454 1454 1455 1456 1456 1457 1458 1458 1459 1460 1461 1462 1463 1464 1466 1467 1469 1470 1471 1472
1451 1450 1450 1449 1449 1449 1449 1448 1448 1448 1448 1448 1447 1447 1447 1447 1447 1447 1447 1448 1448 1448 1448 1448 1449 1450 1451 1451 1452 1452 1453 1453 1454 1455 1456 1457 1458 1459 1461 1462 1464 1465 1465
1447 1446 1446 1446 1445 1445 1445 1444 1444 1444 1444 1443 1443 1443 1442 1442 1442 1442 1442 1442 1442 1443 1443 1443 1444 1444 1445 1446 1446 1447 1447 1447 1448 1449 1450 1451 1452 1453 1454 1455 1457 1458 1459
1444 1443 1442 1442 1442 1441 1441 1441 1440 1440 1439 1439 1438 1438 1438 1438 1437 1437 1437 1437 1437 1437 1437 1438 1438 1439 1440 1441 1441 1441 1442 1442 1442 1443 1444 1445 1445 1446 1448 1449 1449 1450 1451
1440 1440 1439 1438 1438 1437 1437 1436 1436 1436 1435 1434 1434 1434 1434 1433 1433 1433 1432 1433 1432 1433 1433 1433 1433 1433 1434 1435 1435 1436 1436 1436 1436 1437 1437 1438 1439 1441 1442 1442 1442 1443 1444
1437 1436 1435 1435 1434 1434 1433 1432 1432 1432 1431 1431 1430 1430 1430 1429 1429 1429 1428 1428 1428 1428 1428 1428 1428 1428 1428 1429 1430 1430 1430 1430 1430 1431 1431 1432 1433 1434 1435 1436 1435 1435 1436
1433 1432 1432 1431 1430 1430 1430 1429 1428 1428 1427 1427 1427 1426 1426 1426 1425 1425 1424 1424 1424 1424 1423 1423 1423 1423 1423 1423 1424 1424 1425 1425 1425 1425 1425 1426 1427 1428 1429 1430 1429 1429 1431
1430 1429 1428 1428 1427 1427 1427 1426 1425 1425 1424 1423 1423 1422 1422 1421 1421 1420 1420 1420 1420 1419 1418 1418 1418 1418 1418 1418 1419 1419 1420 1421 1420 1420 1420 1420 1421 1422 1423 1423 1424 1425 1425
1428 1427 1426 1425 1424 1424 1424 1423 1422 1421 1420 1419 1419 1418 1418 1417 1417 1416 1416 1415 1415 1415 1414 1414 1413 1413 1413 1413 1414 1415 1415 1415 1416 1415 1415 1415 1416 1416 1416 1417 1418 1419 1419
1425 1424 1423 1422 1421 1421 1420 1420 1419 1418 1417 1416 1415 1414 1413 1413 1412 1412 1412 1411 1411 1410 1410 1409 1409 1408 1408 1409 1409 1410 1410 1411 1411 1410 1410 1411 1411 1411 1411 1411 1412 1413 1413
1423 1422 1421 1419 1418 1418 1417 1416 1415 1414 1413 1412 1411 1410 1409 1409 1408 1408 1407 1407 1407 1407 1406 1405 1405 1404 1404 1405 1405 1406 1406 1406 1406 1406 1405 1405 1405 1405 1405 1406 1406 1407 1407
1421 1420 1418 1417 1416 1415 1414 1413 1412 1411 1410 1408 1407 1406 1405 1405 1404 1403 1403 1403 1403 1402 1402 1402 1402 1401 1401 1401 1401 1402 1402 1402 1402 1401 1400 1400 1400 1400 1400 1400 1401 1401 1402